Terminal Aerodrome Forecast
Issued by NWS

Home | Current Version | Previous Version | Text Only | Print | Product List | Glossary On
Versions: 1 2 3 4 5 6 7 8 9 10 11 12
000
FTAK31 PAJN 301700
TAFAKT
TAF
PAKT 301735Z 3018/0118 32009KT P6SM SCT025 SCT040
      TEMPO 3018/3020 BKN045
     FM302000 34011KT P6SM SCT050 SCT100
     FM010300 33005KT P6SM SCT100
      AMD LTD TO CLD VIS AND WIND 0106/0115=

USA.gov is the U.S. government's official web portal to all federal, state and local government web resources and services.